Tracking 28514 objects as of 23-Feb-2024
HD Live streaming from Space Station
objects crossing your sky now

BDSAT

Track BDSAT now!
10-day predictions
BDSAT is classified as:


NORAD ID: 52175
Int'l Code: 2022-033U
Perigee: 292.2 km
Apogee: 304.6 km
Inclination: 97.3 °
Period: 90.3 minutes
Semi major axis: 6669 km
RCS: Unknown
Launch date: April 1, 2022
Source: (TBD)
Launch site: AIR FORCE EASTERN TEST RANGE (AFETR)

Uplink (MHz):
Downlink (MHz): 145.850/436.025
Beacon (MHz): 436.025
Mode: 9600bps GFSK CW
Call sign: OK0BDS
Status: Active

Your satellite tracking list
Your tracking list is empty




NASA's NSSDC Master Catalog

Two Line Element Set (TLE):
1 52175U 22033U   24054.51519594  .00534848  11715-3  14655-2 0  9997
2 52175  97.3186 149.0987 0009314 285.4153  74.6093 15.93953037106459
Source of the keplerian elements: AFSPC